QPF
0.01 0.00 0.00 0.00 0.00 0.00 0.01 0.01 0.01 0.01 0.01 0.01 0.01 0.01 0.00 0.01 0.01 0.03 0.05 0.04 0.02 0.02 0.03 0.04 0.03 0.02 0.02 0.01 0.01 0.01 0.02 0.02 0.02 0.03 0.03 0.06 0.09 0.08 0.08 0.06 0.05 0.07 0.08 0.05
0.00 0.00 0.00 0.00 0.00 0.00 0.01 0.01 0.01 0.01 0.01 0.01 0.02 0.03 0.01 0.01 0.01 0.02 0.02 0.02 0.01 0.02 0.04 0.04 0.03 0.03 0.02 0.02 0.02 0.02 0.03 0.02 0.02 0.03 0.04 0.05 0.08 0.09 0.07 0.07 0.05 0.04 0.06 0.07
0.01 0.01 0.00 0.01 0.01 0.01 0.01 0.01 0.01 0.01 0.01 0.01 0.01 0.02 0.03 0.02 0.01 0.01 0.01 0.02 0.02 0.02 0.02 0.03 0.03 0.02 0.02 0.02 0.03 0.03 0.04 0.04 0.02 0.03 0.03 0.05 0.07 0.08 0.08 0.08 0.07 0.04 0.03 0.04
0.02 0.01 0.01 0.01 0.01 0.01 0.02 0.02 0.01 0.02 0.02 0.01 0.02 0.02 0.02 0.02 0.02 0.02 0.02 0.03 0.02 0.01 0.01 0.01 0.02 0.02 0.01 0.02 0.02 0.02 0.04 0.05 0.04 0.03 0.04 0.05 0.08 0.07 0.07 0.08 0.08 0.06 0.04 0.03
0.02 0.01 0.01 0.01 0.01 0.02 0.02 0.04 0.03 0.02 0.02 0.01 0.01 0.02 0.03 0.03 0.03 0.02 0.02 0.02 0.01 0.01 0.01 0.02 0.02 0.02 0.01 0.01 0.01 0.01 0.02 0.04 0.04 0.03 0.04 0.05 0.07 0.08 0.06 0.07 0.07 0.07 0.06 0.04
0.03 0.02 0.01 0.01 0.01 0.01 0.01 0.03 0.02 0.01 0.01 0.00 0.00 0.01 0.02 0.02 0.03 0.03 0.02 0.01 0.00 0.01 0.01 0.02 0.02 0.01 0.01 0.01 0.01 0.01 0.01 0.02 0.03 0.03 0.04 0.05 0.06 0.08 0.07 0.07 0.07 0.07 0.06 0.06
0.02 0.02 0.01 0.01 0.01 0.01 0.02 0.02 0.01 0.00 0.01 0.01 0.01 0.01 0.01 0.01 0.01 0.01 0.02 0.01 0.00 0.00 0.01 0.01 0.02 0.02 0.02 0.02 0.01 0.01 0.01 0.02 0.02 0.02 0.04 0.05 0.06 0.06 0.07 0.08 0.09 0.08 0.07 0.06
0.01 0.01 0.02 0.02 0.01 0.02 0.02 0.01 0.00 0.00 0.01 0.02 0.01 0.01 0.01 0.01 0.00 0.00 0.01 0.01 0.00 0.01 0.01 0.01 0.02 0.02 0.03 0.03 0.02 0.01 0.01 0.01 0.03 0.03 0.04 0.06 0.08 0.06 0.06 0.07 0.09 0.10 0.07 0.05
0.01 0.02 0.02 0.01 0.01 0.01 0.01 0.01 0.01 0.01 0.02 0.01 0.01 0.01 0.01 0.01 0.00 0.00 0.00 0.01 0.01 0.01 0.01 0.01 0.01 0.01 0.03 0.03 0.02 0.02 0.03 0.03 0.03 0.04 0.05 0.05 0.07 0.07 0.06 0.08 0.10 0.10 0.08 0.06
0.01 0.01 0.01 0.00 0.00 0.01 0.01 0.01 0.01 0.01 0.01 0.01 0.01 0.01 0.01 0.00 0.00 0.00 0.00 0.00 0.00 0.01 0.00 0.01 0.01 0.01 0.02 0.02 0.02 0.03 0.05 0.05 0.04 0.04 0.06 0.06 0.07 0.08 0.07 0.08 0.11 0.11 0.09 0.08
0.01 0.00 0.00 0.00 0.00 0.00 0.01 0.01 0.01 0.00 0.00 0.00 0.00 0.00 0.00 0.00 0.00 0.00 0.00 0.00 0.00 0.01 0.01 0.01 0.01 0.01 0.02 0.02 0.02 0.03 0.04 0.07 0.06 0.04 0.05 0.06 0.06 0.07 0.06 0.06 0.08 0.08 0.07 0.07
0.01 0.01 0.00 0.00 0.00 0.00 0.01 0.01 0.00 0.00 0.00 0.00 0.00 0.00 0.00 0.00 0.00 0.00 0.00 0.00 0.00 0.00 0.00 0.00 0.01 0.01 0.02 0.02 0.03 0.03 0.04 0.05 0.06 0.06 0.05 0.05 0.06 0.07 0.06 0.05 0.06 0.06 0.05 0.05
0.00 0.00 0.00 0.00 0.00 0.00 0.01 0.01 0.00 0.00 0.00 0.00 0.00 0.00 0.00 0.00 0.00 0.00 0.00 0.00 0.00 0.00 0.00 0.00 0.01 0.01 0.02 0.02 0.03 0.03 0.03 0.04 0.04 0.05 0.06 0.06 0.06 0.06 0.06 0.05 0.04 0.04 0.03 0.04
0.00 0.00 0.00 0.00 0.00 0.00 0.00 0.00 0.01 0.00 0.00 0.00 0.00 0.00 0.00 0.00 0.00 0.00 0.00 0.00 0.00 0.00 0.00 0.00 0.01 0.01 0.01 0.02 0.02 0.03 0.03 0.04 0.04 0.04 0.06 0.05 0.05 0.05 0.04 0.04 0.04 0.03 0.03 0.03
0.00 0.00 0.00 0.01 0.01 0.01 0.01 0.01 0.01 0.01 0.00 0.00 0.00 0.00 0.00 0.00 0.00 0.00 0.00 0.00 0.00 0.01 0.01 0.00 0.00 0.00 0.01 0.01 0.02 0.03 0.03 0.04 0.04 0.04 0.05 0.05 0.04 0.04 0.04 0.03 0.03 0.03 0.03 0.02
0.01 0.01 0.01 0.01 0.02 0.02 0.02 0.01 0.01 0.00 0.00 0.00 0.00 0.00 0.00 0.00 0.00 0.00 0.00 0.00 0.00 0.01 0.01 0.00 0.00 0.01 0.01 0.01 0.01 0.02 0.03 0.04 0.04 0.04 0.04 0.04 0.03 0.03 0.03 0.03 0.02 0.02 0.02 0.02
0.01 0.02 0.02 0.02 0.02 0.02 0.02 0.01 0.01 0.01 0.00 0.00 0.00 0.00 0.00 0.00 0.00 0.00 0.00 0.00 0.00 0.00 0.01 0.01 0.01 0.01 0.01 0.01 0.01 0.01 0.02 0.03 0.03 0.03 0.03 0.03 0.03 0.02 0.02 0.02 0.02 0.02 0.02 0.02
0.02 0.02 0.02 0.02 0.02 0.02 0.01 0.01 0.01 0.01 0.00 0.00 0.00 0.00 0.00 0.00 0.00 0.00 0.00 0.00 0.00 0.00 0.01 0.01 0.01 0.01 0.01 0.01 0.00 0.01 0.02 0.02 0.02 0.02 0.02 0.02 0.02 0.01 0.02 0.02 0.02 0.02 0.02 0.02
0.02 0.02 0.02 0.02 0.01 0.01 0.01 0.01 0.00 0.01 0.01 0.00 0.00 0.00 0.00 0.00 0.01 0.01 0.00 0.00 0.00 0.00 0.01 0.01 0.01 0.00 0.00 0.00 0.00 0.01 0.01 0.02 0.01 0.01 0.01 0.02 0.01 0.01 0.02 0.02 0.02 0.02 0.02 0.02
0.01 0.01 0.01 0.01 0.01 0.00 0.00 0.00 0.00 0.00 0.00 0.00 0.00 0.00 0.00 0.01 0.01 0.01 0.00 0.00 0.00 0.00 0.00 0.00 0.00 0.00 0.00 0.00 0.01 0.00 0.01 0.01 0.01 0.01 0.01 0.01 0.01 0.01 0.02 0.02 0.02 0.02 0.02 0.02
0.01 0.01 0.01 0.01 0.01 0.00 0.00 0.00 0.00 0.00 0.00 0.00 0.00 0.01 0.01 0.01 0.01 0.01 0.01 0.01 0.01 0.01 0.01 0.01 0.00 0.00 0.00 0.00 0.00 0.00 0.01 0.01 0.01 0.01 0.02 0.02 0.02 0.01 0.02 0.02 0.02 0.02 0.02 0.02
0.01 0.00 0.00 0.00 0.01 0.00 0.00 0.00 0.00 0.00 0.00 0.00 0.01 0.01 0.01 0.01 0.02 0.01 0.01 0.01 0.01 0.01 0.01 0.00 0.00 0.00 0.00 0.00 0.00 0.00 0.00 0.01 0.01 0.01 0.01 0.03 0.03 0.02 0.02 0.02 0.02 0.02 0.02 0.02
0.00 0.00 0.00 0.00 0.00 0.00 0.00 0.00 0.00 0.00 0.01 0.01 0.01 0.01 0.01 0.01 0.01 0.01 0.01 0.01 0.01 0.01 0.00 0.00 0.00 0.00 0.00 0.00 0.00 0.00 0.00 0.01 0.01 0.01 0.01 0.03 0.03 0.02 0.01 0.02 0.02 0.02 0.02 0.02
0.00 0.00 0.00 0.00 0.00 0.00 0.00 0.00 0.01 0.01 0.01 0.01 0.01 0.01 0.01 0.01 0.01 0.01 0.01 0.01 0.01 0.01 0.00 0.00 0.00 0.00 0.00 0.00 0.00 0.00 0.00 0.01 0.01 0.01 0.01 0.02 0.03 0.03 0.02 0.02 0.02 0.02 0.02 0.02
0.00 0.00 0.00 0.01 0.01 0.00 0.00 0.00 0.01 0.01 0.01 0.01 0.01 0.01 0.01 0.01 0.01 0.01 0.01 0.01 0.02 0.02 0.01 0.01 0.01 0.01 0.01 0.01 0.01 0.01 0.01 0.01 0.01 0.01 0.02 0.02 0.03 0.04 0.03 0.02 0.02 0.01 0.01 0.02
0.01 0.01 0.01 0.01 0.01 0.00 0.01 0.01 0.01 0.01 0.01 0.01 0.01 0.01 0.01 0.01 0.01 0.01 0.01 0.01 0.01 0.01 0.01 0.02 0.02 0.02 0.02 0.02 0.03 0.02 0.02 0.02 0.01 0.01 0.02 0.02 0.02 0.03 0.03 0.03 0.02 0.01 0.01 0.02
0.01 0.01 0.01 0.01 0.01 0.01 0.01 0.01 0.01 0.01 0.01 0.01 0.01 0.01 0.01 0.01 0.01 0.01 0.01 0.01 0.01 0.01 0.01 0.01 0.01 0.02 0.02 0.03 0.03 0.03 0.02 0.02 0.02 0.02 0.02 0.02 0.02 0.02 0.02 0.03 0.02 0.02 0.02 0.02
MSLP
1016.75 1016.87 1017.04 1017.23 1017.39 1017.47 1017.43 1017.20 1016.79 1016.19 1015.44 1014.60 1013.75 1012.97 1012.35 1011.92 1011.72 1011.75 1011.98 1012.38 1012.88 1013.45 1014.03 1014.62 1015.20 1015.79 1016.39 1017.02 1017.69 1018.41 1019.16 1019.93 1020.69 1021.41 1022.08 1022.67 1023.19 1023.65 1024.05 1024.41 1024.76 1025.11 1025.47 1025.84
1017.05 1017.07 1017.07 1017.05 1016.98 1016.82 1016.56 1016.19 1015.69 1015.08 1014.41 1013.70 1013.01 1012.40 1011.91 1011.57 1011.40 1011.40 1011.55 1011.82 1012.19 1012.63 1013.11 1013.64 1014.20 1014.81 1015.46 1016.16 1016.91 1017.69 1018.49 1019.30 1020.08 1020.83 1021.52 1022.15 1022.72 1023.24 1023.72 1024.17 1024.60 1025.02 1025.44 1025.85
1017.40 1017.33 1017.21 1017.02 1016.76 1016.43 1016.01 1015.52 1014.97 1014.37 1013.75 1013.14 1012.57 1012.07 1011.67 1011.38 1011.20 1011.14 1011.18 1011.31 1011.54 1011.84 1012.23 1012.68 1013.22 1013.83 1014.51 1015.27 1016.07 1016.90 1017.75 1018.59 1019.40 1020.17 1020.89 1021.57 1022.20 1022.79 1023.36 1023.89 1024.41 1024.90 1025.38 1025.83
1017.78 1017.65 1017.45 1017.16 1016.79 1016.34 1015.83 1015.27 1014.69 1014.10 1013.53 1012.99 1012.50 1012.08 1011.71 1011.42 1011.19 1011.04 1010.96 1010.95 1011.03 1011.20 1011.48 1011.86 1012.35 1012.94 1013.64 1014.41 1015.24 1016.11 1016.98 1017.83 1018.66 1019.46 1020.21 1020.93 1021.62 1022.28 1022.92 1023.55 1024.15 1024.71 1025.24 1025.73
1018.18 1018.02 1017.78 1017.44 1017.02 1016.52 1015.98 1015.41 1014.83 1014.27 1013.74 1013.25 1012.80 1012.40 1012.03 1011.71 1011.41 1011.16 1010.95 1010.81 1010.75 1010.79 1010.96 1011.25 1011.68 1012.24 1012.91 1013.67 1014.50 1015.35 1016.21 1017.06 1017.89 1018.69 1019.46 1020.21 1020.95 1021.67 1022.39 1023.09 1023.76 1024.39 1024.98 1025.50
1018.59 1018.42 1018.16 1017.81 1017.39 1016.90 1016.37 1015.83 1015.28 1014.76 1014.27 1013.81 1013.38 1012.98 1012.59 1012.20 1011.83 1011.48 1011.16 1010.90 1010.72 1010.65 1010.71 1010.92 1011.27 1011.76 1012.37 1013.08 1013.86 1014.67 1015.49 1016.30 1017.10 1017.88 1018.65 1019.42 1020.18 1020.95 1021.73 1022.49 1023.22 1023.91 1024.55 1025.11
1018.99 1018.80 1018.54 1018.21 1017.82 1017.37 1016.89 1016.39 1015.90 1015.43 1014.97 1014.53 1014.11 1013.69 1013.26 1012.83 1012.39 1011.96 1011.55 1011.20 1010.92 1010.76 1010.72 1010.84 1011.10 1011.51 1012.03 1012.65 1013.34 1014.07 1014.81 1015.55 1016.30 1017.04 1017.79 1018.56 1019.34 1020.13 1020.94 1021.74 1022.52 1023.26 1023.94 1024.55
1019.35 1019.13 1018.87 1018.56 1018.20 1017.80 1017.38 1016.95 1016.51 1016.08 1015.65 1015.23 1014.81 1014.38 1013.93 1013.46 1012.97 1012.49 1012.03 1011.61 1011.27 1011.03 1010.92 1010.95 1011.11 1011.41 1011.82 1012.33 1012.91 1013.52 1014.16 1014.83 1015.50 1016.19 1016.91 1017.65 1018.43 1019.23 1020.06 1020.88 1021.69 1022.47 1023.18 1023.83
1019.61 1019.35 1019.07 1018.76 1018.44 1018.08 1017.71 1017.33 1016.94 1016.55 1016.15 1015.74 1015.32 1014.89 1014.42 1013.94 1013.44 1012.94 1012.45 1012.00 1011.63 1011.35 1011.17 1011.12 1011.19 1011.38 1011.67 1012.05 1012.50 1012.99 1013.53 1014.10 1014.70 1015.33 1016.01 1016.73 1017.50 1018.30 1019.12 1019.95 1020.77 1021.56 1022.31 1022.99
1019.72 1019.40 1019.08 1018.77 1018.45 1018.12 1017.79 1017.44 1017.08 1016.71 1016.33 1015.93 1015.52 1015.08 1014.63 1014.15 1013.66 1013.17 1012.69 1012.25 1011.87 1011.56 1011.34 1011.22 1011.20 1011.28 1011.46 1011.71 1012.04 1012.42 1012.86 1013.35 1013.89 1014.48 1015.12 1015.82 1016.57 1017.36 1018.18 1019.00 1019.82 1020.61 1021.36 1022.07
1019.63 1019.24 1018.87 1018.53 1018.20 1017.87 1017.55 1017.21 1016.86 1016.50 1016.12 1015.73 1015.32 1014.90 1014.45 1014.00 1013.54 1013.08 1012.64 1012.22 1011.85 1011.54 1011.29 1011.12 1011.03 1011.02 1011.09 1011.24 1011.46 1011.75 1012.12 1012.55 1013.05 1013.61 1014.24 1014.93 1015.67 1016.45 1017.26 1018.06 1018.86 1019.64 1020.40 1021.12
1019.30 1018.85 1018.43 1018.05 1017.69 1017.35 1017.01 1016.66 1016.31 1015.93 1015.55 1015.15 1014.73 1014.31 1013.89 1013.47 1013.05 1012.63 1012.23 1011.85 1011.50 1011.19 1010.93 1010.72 1010.57 1010.49 1010.48 1010.55 1010.70 1010.94 1011.26 1011.67 1012.15 1012.72 1013.36 1014.06 1014.80 1015.58 1016.36 1017.15 1017.93 1018.69 1019.43 1020.15
1018.77 1018.26 1017.81 1017.39 1017.00 1016.63 1016.26 1015.89 1015.50 1015.10 1014.69 1014.27 1013.85 1013.43 1013.02 1012.62 1012.23 1011.85 1011.49 1011.14 1010.82 1010.51 1010.24 1010.00 1009.81 1009.68 1009.62 1009.64 1009.75 1009.96 1010.27 1010.68 1011.19 1011.78 1012.45 1013.17 1013.93 1014.70 1015.48 1016.26 1017.01 1017.75 1018.47 1019.18
1018.08 1017.55 1017.07 1016.63 1016.22 1015.82 1015.42 1015.01 1014.58 1014.14 1013.69 1013.23 1012.79 1012.35 1011.94 1011.54 1011.17 1010.82 1010.48 1010.15 1009.84 1009.54 1009.26 1009.00 1008.79 1008.63 1008.53 1008.53 1008.63 1008.84 1009.17 1009.60 1010.14 1010.77 1011.48 1012.23 1013.01 1013.80 1014.58 1015.34 1016.07 1016.79 1017.49 1018.19
1017.32 1016.80 1016.32 1015.88 1015.45 1015.03 1014.60 1014.15 1013.68 1013.19 1012.68 1012.18 1011.69 1011.22 1010.78 1010.38 1010.00 1009.64 1009.31 1008.99 1008.67 1008.37 1008.08 1007.81 1007.58 1007.40 1007.30 1007.29 1007.40 1007.62 1007.97 1008.44 1009.02 1009.70 1010.43 1011.22 1012.02 1012.82 1013.60 1014.36 1015.09 1015.79 1016.48 1017.17
1016.59 1016.09 1015.64 1015.21 1014.79 1014.36 1013.90 1013.42 1012.89 1012.35 1011.78 1011.22 1010.67 1010.15 1009.67 1009.22 1008.81 1008.44 1008.09 1007.75 1007.43 1007.11 1006.81 1006.53 1006.29 1006.11 1006.01 1006.01 1006.13 1006.38 1006.75 1007.25 1007.86 1008.56 1009.32 1010.13 1010.95 1011.76 1012.54 1013.30 1014.02 1014.73 1015.42 1016.12
1015.94 1015.49 1015.08 1014.69 1014.28 1013.85 1013.37 1012.85 1012.28 1011.67 1011.05 1010.41 1009.80 1009.21 1008.66 1008.16 1007.71 1007.29 1006.91 1006.55 1006.20 1005.87 1005.57 1005.28 1005.05 1004.87 1004.78 1004.79 1004.92 1005.18 1005.57 1006.08 1006.70 1007.40 1008.17 1008.98 1009.79 1010.60 1011.39 1012.15 1012.88 1013.60 1014.31 1015.02
1015.41 1015.02 1014.66 1014.30 1013.92 1013.48 1012.99 1012.43 1011.82 1011.15 1010.46 1009.75 1009.06 1008.40 1007.79 1007.22 1006.71 1006.25 1005.83 1005.44 1005.08 1004.74 1004.43 1004.15 1003.93 1003.77 1003.69 1003.71 1003.85 1004.11 1004.49 1004.99 1005.59 1006.27 1007.02 1007.80 1008.59 1009.39 1010.17 1010.93 1011.68 1012.41 1013.15 1013.91
1014.99 1014.66 1014.34 1014.01 1013.63 1013.20 1012.68 1012.09 1011.43 1010.71 1009.95 1009.18 1008.42 1007.70 1007.02 1006.39 1005.83 1005.32 1004.87 1004.46 1004.09 1003.76 1003.46 1003.20 1003.00 1002.86 1002.79 1002.83 1002.96 1003.21 1003.57 1004.03 1004.59 1005.22 1005.91 1006.64 1007.39 1008.15 1008.92 1009.68 1010.44 1011.20 1011.98 1012.77
1014.61 1014.32 1014.03 1013.71 1013.33 1012.88 1012.35 1011.72 1011.02 1010.25 1009.44 1008.62 1007.80 1007.02 1006.29 1005.63 1005.03 1004.50 1004.03 1003.62 1003.26 1002.94 1002.67 1002.44 1002.27 1002.15 1002.11 1002.15 1002.28 1002.51 1002.82 1003.23 1003.72 1004.28 1004.89 1005.55 1006.24 1006.95 1007.69 1008.44 1009.21 1010.00 1010.81 1011.64
1014.22 1013.93 1013.64 1013.32 1012.92 1012.45 1011.88 1011.23 1010.49 1009.68 1008.84 1007.98 1007.14 1006.33 1005.58 1004.89 1004.28 1003.74 1003.28 1002.88 1002.55 1002.26 1002.03 1001.84 1001.71 1001.63 1001.61 1001.65 1001.77 1001.96 1002.23 1002.57 1002.98 1003.45 1003.97 1004.55 1005.16 1005.82 1006.52 1007.25 1008.02 1008.82 1009.66 1010.52
1013.73 1013.43 1013.12 1012.76 1012.34 1011.83 1011.23 1010.55 1009.78 1008.96 1008.11 1007.24 1006.40 1005.59 1004.84 1004.17 1003.57 1003.05 1002.61 1002.25 1001.95 1001.71 1001.52 1001.38 1001.28 1001.23 1001.23 1001.28 1001.39 1001.54 1001.75 1002.02 1002.35 1002.72 1003.16 1003.64 1004.18 1004.78 1005.43 1006.13 1006.89 1007.69 1008.55 1009.43
1013.11 1012.79 1012.43 1012.03 1011.57 1011.02 1010.39 1009.68 1008.91 1008.10 1007.26 1006.41 1005.60 1004.82 1004.11 1003.47 1002.91 1002.43 1002.03 1001.71 1001.45 1001.25 1001.11 1001.00 1000.94 1000.92 1000.93 1000.97 1001.06 1001.18 1001.34 1001.54 1001.79 1002.08 1002.43 1002.83 1003.30 1003.83 1004.43 1005.10 1005.83 1006.63 1007.49 1008.38
1012.38 1012.01 1011.60 1011.15 1010.64 1010.06 1009.41 1008.70 1007.94 1007.15 1006.34 1005.55 1004.79 1004.07 1003.42 1002.84 1002.33 1001.90 1001.55 1001.27 1001.05 1000.88 1000.76 1000.68 1000.64 1000.63 1000.64 1000.68 1000.74 1000.82 1000.94 1001.08 1001.27 1001.49 1001.77 1002.11 1002.51 1002.99 1003.54 1004.18 1004.89 1005.67 1006.51 1007.39
1011.56 1011.15 1010.69 1010.19 1009.64 1009.03 1008.37 1007.67 1006.94 1006.19 1005.45 1004.73 1004.04 1003.41 1002.83 1002.31 1001.87 1001.49 1001.18 1000.92 1000.73 1000.58 1000.47 1000.40 1000.35 1000.33 1000.33 1000.35 1000.39 1000.44 1000.52 1000.63 1000.76 1000.94 1001.17 1001.46 1001.82 1002.26 1002.78 1003.38 1004.06 1004.81 1005.63 1006.49
1010.74 1010.28 1009.78 1009.24 1008.65 1008.03 1007.37 1006.70 1006.01 1005.33 1004.66 1004.02 1003.42 1002.87 1002.37 1001.92 1001.53 1001.20 1000.91 1000.68 1000.49 1000.33 1000.21 1000.12 1000.06 1000.01 999.99 999.99 1000.00 1000.03 1000.09 1000.17 1000.29 1000.44 1000.65 1000.92 1001.25 1001.66 1002.16 1002.73 1003.38 1004.11 1004.89 1005.73
1009.96 1009.47 1008.93 1008.36 1007.76 1007.13 1006.49 1005.85 1005.22 1004.60 1004.01 1003.46 1002.95 1002.48 1002.05 1001.66 1001.32 1001.01 1000.74 1000.50 1000.30 1000.12 999.97 999.84 999.75 999.67 999.62 999.59 999.59 999.61 999.66 999.74 999.85 1000.01 1000.22 1000.49 1000.82 1001.22 1001.70 1002.26 1002.88 1003.58 1004.34 1005.14
Thickness
5642 5648 5649 5648 5649 5649 5642 5635 5626 5630 5631 5636 5637 5637 5636 5634 5631 5629 5625 5623 5620 5615 5612 5610 5609 5607 5606 5604 5602 5601 5599 5597 5596 5596 5596 5596 5596 5596 5595 5594 5594 5593 5592 5591
5637 5644 5644 5642 5645 5644 5642 5639 5634 5632 5629 5636 5635 5631 5627 5624 5622 5620 5617 5615 5612 5609 5605 5603 5601 5599 5598 5596 5594 5592 5591 5590 5589 5588 5587 5587 5587 5587 5586 5585 5585 5584 5583 5582
5618 5629 5631 5625 5637 5638 5636 5637 5632 5623 5625 5628 5625 5623 5620 5617 5615 5612 5610 5607 5604 5601 5598 5596 5594 5592 5590 5588 5586 5584 5583 5582 5582 5580 5578 5578 5578 5578 5577 5577 5576 5574 5574 5572
5607 5614 5608 5626 5638 5638 5633 5631 5631 5627 5624 5623 5621 5618 5615 5612 5607 5604 5603 5600 5597 5593 5591 5589 5587 5585 5583 5580 5578 5576 5574 5574 5573 5572 5571 5570 5569 5568 5568 5568 5567 5566 5565 5563
5595 5596 5604 5623 5631 5631 5624 5619 5624 5621 5618 5615 5613 5607 5603 5605 5602 5598 5596 5593 5589 5587 5584 5582 5580 5578 5575 5572 5570 5568 5566 5565 5563 5563 5562 5561 5560 5559 5559 5559 5557 5556 5556 5554
5589 5589 5591 5612 5627 5631 5622 5608 5617 5616 5611 5608 5604 5591 5592 5597 5594 5590 5587 5584 5581 5579 5577 5574 5572 5570 5566 5564 5562 5560 5558 5557 5555 5554 5553 5552 5551 5550 5549 5549 5549 5548 5547 5545
5584 5583 5593 5613 5621 5622 5601 5601 5611 5610 5607 5602 5597 5593 5591 5589 5586 5582 5579 5576 5573 5570 5567 5566 5564 5562 5558 5556 5554 5553 5551 5549 5547 5545 5544 5543 5542 5541 5540 5540 5539 5538 5537 5536
5578 5577 5589 5612 5611 5603 5601 5606 5605 5603 5600 5597 5593 5589 5585 5581 5576 5573 5570 5567 5564 5560 5558 5556 5555 5553 5550 5548 5547 5545 5543 5541 5538 5536 5536 5535 5532 5532 5532 5531 5530 5528 5527 5526
5586 5590 5600 5605 5605 5605 5602 5599 5597 5594 5593 5589 5584 5579 5576 5571 5568 5565 5562 5558 5555 5552 5549 5547 5546 5544 5542 5540 5539 5537 5534 5532 5530 5528 5526 5525 5524 5523 5522 5522 5521 5520 5518 5518
5583 5589 5594 5596 5597 5597 5596 5593 5591 5588 5585 5581 5575 5571 5566 5563 5560 5557 5554 5551 5548 5545 5542 5540 5538 5536 5535 5533 5531 5528 5525 5523 5522 5520 5517 5516 5515 5514 5513 5512 5512 5511 5510 5508
5576 5582 5585 5588 5588 5587 5586 5585 5582 5579 5576 5572 5568 5563 5559 5555 5552 5549 5546 5543 5541 5538 5535 5533 5531 5529 5527 5525 5522 5520 5517 5515 5513 5512 5510 5508 5507 5505 5505 5505 5504 5504 5502 5501
5573 5578 5575 5577 5580 5580 5577 5576 5574 5571 5567 5564 5560 5555 5551 5547 5544 5541 5538 5535 5532 5530 5527 5525 5523 5521 5519 5517 5515 5512 5509 5506 5505 5503 5501 5500 5498 5496 5496 5496 5496 5496 5495 5493
5576 5577 5574 5574 5573 5572 5569 5568 5567 5564 5560 5556 5552 5548 5544 5539 5536 5532 5529 5527 5524 5522 5519 5517 5515 5513 5511 5509 5507 5504 5501 5499 5497 5495 5493 5492 5490 5488 5485 5485 5486 5485 5485 5484
5572 5570 5566 5565 5563 5563 5562 5561 5559 5555 5552 5548 5544 5540 5535 5531 5527 5523 5520 5518 5516 5514 5511 5509 5507 5505 5504 5501 5499 5496 5493 5492 5489 5487 5485 5483 5482 5480 5478 5476 5474 5473 5473 5473
5564 5563 5559 5557 5556 5555 5553 5551 5548 5544 5541 5538 5535 5531 5526 5522 5518 5515 5512 5510 5507 5505 5503 5501 5499 5497 5496 5494 5491 5488 5486 5483 5481 5479 5477 5476 5474 5472 5470 5468 5465 5464 5462 5462
5555 5552 5550 5548 5546 5545 5543 5541 5538 5535 5532 5529 5525 5522 5518 5515 5510 5507 5504 5501 5498 5496 5494 5492 5490 5489 5488 5486 5484 5481 5478 5478 5475 5472 5470 5468 5466 5464 5461 5459 5457 5455 5454 5453
5545 5542 5541 5539 5537 5535 5534 5533 5530 5527 5524 5520 5517 5513 5509 5505 5501 5498 5495 5493 5490 5488 5486 5484 5482 5481 5480 5478 5476 5473 5471 5469 5468 5464 5462 5460 5458 5456 5454 5451 5449 5447 5446 5446
5541 5538 5536 5534 5530 5528 5526 5524 5522 5519 5516 5513 5510 5505 5501 5497 5493 5490 5487 5484 5482 5479 5477 5476 5475 5473 5472 5470 5468 5466 5463 5461 5459 5457 5455 5453 5451 5449 5447 5444 5442 5441 5439 5438
5533 5531 5529 5527 5525 5521 5519 5516 5514 5511 5508 5505 5501 5497 5493 5489 5485 5481 5478 5475 5473 5470 5469 5468 5467 5465 5464 5462 5460 5457 5455 5453 5451 5449 5448 5447 5444 5442 5439 5437 5435 5434 5432 5430
5526 5524 5522 5519 5517 5515 5511 5509 5506 5503 5500 5497 5493 5488 5484 5480 5476 5473 5469 5466 5464 5462 5461 5460 5458 5457 5455 5453 5452 5449 5446 5445 5443 5441 5439 5437 5435 5434 5431 5429 5428 5426 5425 5423
5518 5516 5514 5511 5509 5507 5504 5501 5497 5494 5491 5488 5484 5479 5475 5471 5468 5464 5460 5457 5456 5455 5454 5454 5451 5449 5447 5445 5443 5440 5438 5436 5434 5432 5431 5429 5427 5425 5423 5421 5420 5419 5417 5415
5510 5508 5506 5503 5500 5497 5494 5491 5489 5486 5482 5479 5475 5471 5467 5463 5459 5456 5453 5450 5449 5448 5446 5445 5443 5442 5440 5438 5435 5432 5430 5429 5427 5425 5423 5421 5419 5417 5415 5413 5411 5410 5408 5406
5501 5500 5497 5495 5492 5488 5485 5482 5479 5476 5473 5469 5466 5462 5458 5455 5451 5448 5444 5443 5442 5441 5439 5437 5436 5435 5434 5430 5427 5425 5423 5421 5419 5417 5415 5413 5411 5409 5407 5405 5403 5401 5400 5398
5492 5491 5489 5486 5483 5479 5475 5472 5470 5467 5463 5460 5457 5454 5450 5446 5443 5441 5439 5437 5435 5433 5431 5430 5429 5428 5426 5422 5419 5417 5415 5413 5411 5409 5407 5406 5403 5401 5399 5398 5396 5394 5392 5391
5484 5482 5479 5476 5472 5469 5466 5463 5460 5456 5453 5450 5447 5444 5442 5439 5436 5433 5431 5429 5428 5426 5423 5422 5422 5420 5417 5414 5412 5410 5408 5406 5404 5402 5400 5398 5396 5394 5392 5391 5389 5387 5385 5383
5475 5472 5470 5467 5464 5460 5457 5454 5450 5447 5443 5440 5437 5435 5432 5430 5428 5425 5423 5421 5419 5418 5415 5413 5413 5411 5409 5407 5405 5403 5401 5399 5397 5395 5393 5391 5390 5388 5386 5385 5383 5381 5379 5377
5466 5463 5460 5457 5454 5451 5448 5445 5442 5438 5436 5433 5429 5427 5424 5422 5419 5417 5415 5413 5411 5409 5407 5406 5405 5403 5401 5399 5397 5395 5394 5392 5390 5388 5387 5385 5383 5382 5380 5378 5376 5374 5372 5371